Theta_e
294 294 295 295 295 288 293 293 290 292 294 293 290 295 291 288 285 287 288 290 294 298 300 305 304 306 314 318 319 319 320 321 322 326 330 331 332 333 334 334 335 336 337 337 337 336 336 337 336 336 337 338 339 340 340 341 342 343 344 345 345 346 346
294 296 295 294 295 296 290 287 289 294 296 293 289 285 283 281 281 284 288 290 290 291 291 302 300 301 308 315 317 318 318 319 320 322 325 331 332 333 335 335 336 337 337 337 337 337 337 337 337 337 337 338 339 340 341 341 342 342 343 344 345 345 346
293 295 293 292 295 297 292 291 296 292 288 290 287 286 282 281 282 284 288 290 291 292 292 296 296 298 303 314 315 316 317 318 319 321 323 325 332 334 334 334 335 336 337 337 337 337 337 338 339 338 338 338 338 339 341 341 341 342 343 344 345 346 346
291 292 292 284 288 293 295 294 291 292 291 289 286 289 285 286 281 282 285 287 288 294 294 297 296 298 307 314 313 314 316 318 319 320 321 323 327 333 334 335 336 336 337 337 337 337 337 337 338 338 338 338 337 339 340 341 342 343 343 344 345 345 346
289 286 288 286 286 285 287 288 286 288 288 291 291 290 288 287 282 280 283 282 288 294 299 298 298 299 314 315 314 314 315 318 319 320 321 322 326 331 334 335 336 337 337 338 338 339 339 338 339 339 338 338 338 339 339 340 340 341 342 343 344 345 346
284 286 291 291 290 290 288 286 285 286 285 284 283 286 289 288 283 280 282 283 290 296 302 300 301 305 317 317 316 314 315 317 318 319 321 322 323 329 334 335 336 337 338 338 339 339 339 338 338 338 339 338 338 338 339 340 340 340 341 343 344 345 346
285 288 292 293 293 291 290 290 286 288 288 286 281 280 284 286 287 291 288 285 289 300 301 302 307 316 317 318 318 315 315 316 318 319 321 321 323 324 327 335 336 339 340 340 339 338 338 338 338 338 338 338 338 338 339 340 340 340 341 343 344 345 345
287 290 291 293 293 291 288 289 290 288 286 286 285 283 286 284 284 282 283 285 289 298 300 301 313 315 317 318 318 315 315 315 317 318 318 320 321 322 325 326 331 335 341 339 339 338 338 338 338 338 338 339 339 339 339 340 340 340 341 342 344 345 345
280 282 286 287 290 291 287 285 288 288 288 288 289 288 289 284 285 285 282 282 287 294 299 300 313 314 315 315 316 317 314 315 316 317 318 319 320 321 322 323 325 327 329 331 335 340 340 339 339 339 339 339 339 339 339 339 340 341 342 343 343 344 345
276 277 277 277 281 284 287 288 288 289 288 287 286 283 284 278 287 286 283 283 288 293 296 302 310 311 313 314 315 316 316 316 315 317 318 318 319 319 320 322 323 324 326 329 330 332 337 341 338 343 341 341 340 340 340 341 341 342 342 343 343 343 344
276 278 282 287 293 285 282 286 287 287 289 288 288 285 281 281 283 284 285 287 287 289 292 301 307 308 310 311 312 312 312 315 316 318 319 319 319 320 320 321 321 323 324 327 329 331 333 336 339 340 340 340 340 340 341 341 341 342 343 343 343 343 343
284 285 287 287 290 285 286 285 286 287 288 287 287 284 284 286 282 279 288 291 286 287 293 303 305 306 309 311 310 311 311 313 315 316 318 322 319 320 321 321 320 321 322 325 328 330 331 334 336 338 340 341 341 341 341 342 342 342 343 343 343 344 344
286 285 286 288 287 287 287 287 286 287 287 287 285 287 288 286 283 280 285 288 288 289 298 304 305 306 308 310 310 311 312 313 314 315 316 316 317 318 319 320 321 321 322 323 326 329 331 332 334 336 338 339 343 343 343 343 343 343 344 343 343 343 344
285 286 287 288 286 287 286 286 287 287 286 287 288 286 287 287 286 287 288 288 289 294 301 305 306 308 309 310 311 311 310 311 312 312 314 315 316 317 318 319 321 322 322 324 325 328 330 330 332 334 336 339 339 341 343 343 344 345 345 344 343 343 343
284 286 289 286 287 287 285 285 286 286 286 286 286 286 289 293 289 291 293 290 289 293 304 307 307 308 310 309 308 308 309 310 311 311 312 314 315 316 317 318 320 321 322 323 325 327 328 330 331 332 335 338 338 339 340 343 345 346 346 345 344 344 344
279 283 285 285 286 286 284 283 284 285 285 286 287 287 289 289 288 290 294 292 294 301 305 308 306 307 307 306 307 307 307 309 310 310 311 312 314 315 316 317 319 319 320 322 323 325 327 329 330 332 334 335 336 337 339 340 343 347 347 346 345 345 346
277 281 285 285 284 279 280 283 285 287 287 289 288 288 292 293 293 292 291 293 300 301 306 304 304 305 306 307 307 307 308 308 309 309 310 311 313 315 316 317 318 318 319 321 322 324 327 329 330 332 334 334 335 336 339 340 344 347 348 347 346 346 347
277 281 283 285 277 274 276 286 290 290 287 288 286 286 289 291 299 295 300 300 301 302 302 302 302 304 305 307 310 312 309 308 308 309 310 311 313 315 316 317 318 319 320 321 322 324 326 329 330 332 335 334 334 337 339 343 344 345 348 349 348 347 348
278 281 282 279 274 275 285 290 292 293 291 291 288 289 295 298 299 299 299 300 300 301 302 302 303 304 308 310 309 310 312 310 309 308 309 310 312 313 315 316 317 319 320 321 322 323 325 328 329 331 332 334 335 337 339 342 343 343 345 348 350 350 349
279 278 276 272 274 282 288 289 294 299 295 296 293 292 297 298 298 298 298 299 300 301 302 303 304 304 305 309 309 309 310 312 311 309 309 310 312 313 315 315 317 318 319 321 322 323 328 327 328 329 329 332 335 337 340 341 344 342 343 344 344 346 349
277 278 276 276 283 284 286 288 291 293 290 292 290 286 289 298 298 299 298 299 300 301 302 302 303 304 306 304 306 307 307 308 312 312 312 312 313 314 315 316 318 320 320 321 323 325 326 326 328 327 328 332 334 338 339 341 343 343 343 342 342 344 345
280 279 275 276 276 274 279 287 295 297 297 296 296 293 289 297 297 299 298 298 299 299 301 301 302 303 304 301 302 305 307 308 309 312 314 314 314 315 315 317 318 319 321 322 324 325 324 325 325 325 327 331 333 338 340 341 343 343 341 339 340 341 344
280 280 276 273 270 277 283 288 293 296 297 296 297 289 284 295 295 297 298 298 299 299 299 300 302 299 296 297 300 304 306 307 309 309 312 314 314 314 315 315 316 318 320 322 324 324 323 323 323 324 326 329 330 336 339 339 342 339 338 338 338 338 339
281 279 275 275 279 275 285 290 294 296 296 297 290 279 280 293 294 298 299 298 299 299 300 301 299 297 294 296 300 306 307 308 308 309 311 312 313 313 314 316 317 319 321 321 321 321 322 322 322 323 324 325 328 331 333 336 336 333 332 333 335 336 337
284 285 278 279 282 289 292 291 295 295 297 294 281 277 285 293 295 298 299 299 300 300 299 299 296 299 301 302 304 306 307 307 307 309 311 312 313 313 314 315 319 318 319 320 320 321 322 322 321 322 323 322 324 327 330 333 331 331 331 331 334 336 336
278 279 279 279 282 287 293 294 295 296 292 281 279 288 293 292 296 299 300 299 300 300 299 299 298 300 301 303 304 305 306 306 307 307 309 311 312 313 315 317 318 316 317 319 321 322 322 320 320 321 321 321 323 324 326 328 328 330 331 331 333 334 334
283 283 281 278 273 284 296 296 293 297 286 285 289 293 294 298 298 298 298 299 300 300 298 299 299 300 300 301 301 303 304 305 305 306 307 308 310 310 311 312 315 317 316 317 319 320 322 321 320 321 320 320 320 322 323 325 326 327 328 330 331 331 332
279 280 277 277 283 288 295 291 285 290 295 294 295 294 293 297 297 297 297 298 299 299 298 298 298 299 299 300 301 302 303 304 305 306 307 308 310 311 312 313 314 316 315 316 317 320 322 322 321 320 320 319 319 320 321 324 325 326 325 326 327 328 331
281 280 282 286 288 293 295 293 291 292 295 297 297 296 296 295 295 297 296 296 297 298 298 298 298 297 298 299 301 301 302 303 304 305 306 307 308 310 311 312 315 315 314 315 316 318 320 322 322 320 320 318 318 318 321 323 324 323 323 323 324 325 327
287 289 290 291 290 291 293 296 296 295 296 297 297 297 295 295 295 296 295 296 296 297 297 296 296 297 298 298 299 301 302 303 304 306 307 307 308 309 310 311 312 314 314 315 315 316 318 321 322 321 319 319 318 318 321 322 322 322 322 322 322 324 326
285 281 286 290 291 292 293 294 295 297 297 296 296 295 295 295 296 296 297 296 296 297 297 296 296 297 298 298 300 301 302 302 303 303 304 306 307 307 308 310 313 312 313 313 315 316 316 318 320 319 318 318 319 320 320 320 321 320 320 321 323 324 325
284 285 287 289 291 292 293 293 292 293 294 295 296 297 296 297 297 297 297 297 296 297 296 297 297 297 299 299 299 300 301 301 302 303 304 305 306 307 308 309 312 313 313 313 313 315 316 317 318 319 318 318 319 319 319 319 319 319 319 320 321 322 324
287 289 292 293 292 292 293 294 294 295 294 294 294 295 295 296 296 296 297 298 297 297 297 298 298 298 298 299 300 300 300 301 302 302 303 304 305 306 307 308 311 311 312 314 314 315 316 317 318 318 318 319 319 319 319 319 318 317 318 319 321 321 322
283 285 288 289 286 285 287 289 292 294 295 295 294 294 295 296 296 296 296 297 298 299 299 299 299 298 298 299 300 300 300 301 302 303 303 304 304 305 307 308 309 311 314 314 314 315 316 317 318 318 319 319 319 319 319 318 318 316 318 318 319 321 322
284 290 292 291 291 289 291 292 293 294 294 294 294 294 295 296 296 297 296 296 297 297 298 300 299 299 298 299 300 299 300 300 302 303 303 303 303 304 306 307 307 308 310 314 315 316 317 318 318 319 319 319 318 319 318 318 317 316 317 317 319 320 322
292 293 291 292 292 291 292 292 294 294 295 295 295 296 296 297 297 297 297 297 297 297 298 299 301 300 299 299 299 298 299 300 301 302 303 303 304 305 306 306 307 308 309 311 314 315 317 318 317 318 318 318 318 317 317 316 316 316 316 316 317 318 319
293 296 294 293 293 294 294 294 295 295 297 298 295 296 297 297 297 298 297 298 299 298 298 298 298 299 298 298 299 299 299 300 302 303 305 306 306 306 306 306 307 308 310 312 314 315 316 316 317 318 317 316 317 316 315 315 315 315 315 316 316 317 319
Wind_Speed
2 4 2 3 1 4 3 2 3 3 2 5 5 1 1 3 6 4 1 2 5 4 2 11 14 12 16 18 18 16 15 14 12 3 8 12 13 12 13 14 15 16 16 15 16 16 15 16 16 17 16 16 16 15 14 15 14 13 14 15 14 13 12
5 5 1 2 4 1 1 1 3 3 2 3 3 3 3 3 5 2 3 2 5 7 2 11 15 15 15 17 16 15 13 14 13 11 9 8 12 13 13 13 13 14 15 17 16 15 17 18 19 18 18 16 16 16 16 17 15 15 14 14 13 12 12
8 8 3 3 6 8 5 4 1 3 1 1 2 5 1 3 2 2 2 1 2 3 5 8 16 16 14 14 14 16 18 17 14 13 13 11 10 12 13 14 14 14 14 14 15 17 18 18 18 18 17 17 15 15 16 17 18 18 17 14 14 12 12
5 5 8 5 9 9 5 2 5 4 4 2 3 2 2 6 3 4 0 4 1 2 4 7 10 10 10 12 13 13 14 13 14 12 13 12 9 13 14 14 15 15 16 17 18 17 17 17 16 16 17 15 17 17 17 16 15 14 15 16 15 14 13
4 6 5 3 5 5 9 11 7 7 3 2 1 2 2 1 5 4 6 2 1 3 4 7 7 8 8 12 11 11 11 13 12 14 13 13 10 11 12 15 15 16 17 16 16 15 15 16 15 14 15 17 17 16 16 17 17 17 16 15 13 13 11
7 2 2 1 7 8 7 4 6 3 6 4 2 1 2 2 3 3 6 4 1 3 4 6 7 5 8 9 10 9 11 13 13 13 15 15 14 11 6 8 6 9 10 11 12 13 12 13 14 16 16 15 15 16 16 16 16 15 16 15 14 13 11
2 2 3 3 1 5 9 8 6 4 1 2 3 5 2 2 3 1 3 7 1 2 2 7 6 7 7 9 9 10 10 11 12 14 14 14 16 14 15 4 3 1 3 4 7 10 12 14 15 16 15 15 16 17 17 15 16 16 15 15 14 12 12
3 3 3 3 7 2 4 7 7 7 6 3 1 2 1 4 5 5 3 4 3 2 4 6 5 5 7 7 10 10 10 10 12 13 16 18 16 18 16 15 14 7 2 5 7 8 9 10 12 15 14 14 14 14 15 15 17 17 15 14 13 13 12
2 5 3 1 2 5 4 2 5 4 4 4 1 2 2 5 1 1 3 5 3 2 6 5 7 9 11 12 12 11 11 11 12 13 14 14 17 18 17 17 14 14 14 13 9 4 6 8 9 9 10 12 11 12 13 14 15 15 14 13 13 13 13
2 2 2 3 5 4 3 1 6 7 8 9 6 3 4 4 1 1 2 1 4 5 3 7 10 10 10 11 11 12 11 12 12 13 13 15 15 15 17 17 16 15 12 12 13 12 8 3 8 5 7 10 10 11 11 11 12 12 13 12 13 13 13
5 2 1 1 0 3 3 5 4 6 4 5 3 4 4 2 2 0 2 2 5 9 7 9 11 9 11 12 13 13 14 14 13 11 11 12 11 14 14 13 13 15 17 16 13 13 10 12 7 7 11 9 11 11 11 12 11 12 12 12 12 13 13
3 3 0 2 2 1 1 3 3 5 5 3 3 3 0 2 3 1 1 1 5 5 6 8 8 8 7 9 9 11 11 12 13 12 11 13 14 14 14 16 16 14 13 13 14 12 14 12 10 11 4 7 11 11 12 12 12 12 11 13 13 13 13
3 2 2 2 3 1 2 3 2 3 4 4 3 2 1 3 2 3 3 3 2 2 7 6 5 5 5 7 9 8 8 10 11 13 14 14 14 13 13 13 13 14 13 12 12 12 11 12 14 12 10 10 5 8 11 11 13 14 13 13 13 14 14
2 2 2 1 3 2 3 3 3 3 3 4 1 3 3 3 2 3 4 4 4 0 5 4 6 5 5 6 4 6 12 13 12 13 13 13 13 13 13 13 12 11 11 11 10 12 12 13 13 12 11 10 8 9 4 10 12 12 12 13 13 14 15
0 1 3 2 0 0 3 5 5 6 5 3 3 1 2 1 0 1 1 1 1 1 1 2 3 2 2 5 9 10 8 11 13 12 12 12 11 12 12 12 12 10 10 11 11 12 12 12 10 9 9 8 8 7 8 8 5 11 13 13 14 15 16
0 2 1 3 3 2 2 3 3 3 2 0 1 1 1 1 2 2 1 1 1 2 6 2 3 4 8 8 7 8 8 9 10 12 12 12 12 12 12 12 12 13 13 12 12 11 10 10 10 9 9 9 8 8 8 8 8 7 12 14 15 15 15
1 3 1 4 3 2 3 2 4 2 1 0 2 3 2 2 0 0 0 1 2 4 4 4 5 6 5 6 7 6 7 6 7 10 11 11 11 11 11 12 13 13 13 12 11 10 10 9 10 9 7 8 7 8 7 8 7 7 8 14 14 14 14
2 3 5 1 2 2 2 1 2 1 2 3 4 4 4 4 3 2 1 0 3 5 6 6 6 6 4 3 2 2 4 6 7 8 8 10 11 10 10 10 10 11 11 11 12 11 9 10 11 9 7 6 6 6 6 6 9 9 9 9 12 14 14
2 3 4 3 1 3 1 5 4 3 5 1 5 7 3 3 4 5 4 4 5 5 3 3 4 5 2 1 2 5 5 5 6 7 8 9 11 11 10 11 11 11 11 11 12 13 12 12 11 11 10 8 7 6 6 7 9 10 11 9 7 9 12
1 3 2 1 1 2 4 6 5 3 2 2 0 1 1 3 4 2 1 4 3 4 4 3 4 5 6 4 3 6 6 6 5 7 8 9 9 11 11 11 11 11 11 11 11 13 12 11 10 11 11 10 9 7 7 6 7 8 11 11 9 9 9
1 1 1 4 3 3 2 1 3 3 2 2 2 1 4 1 3 3 2 5 7 8 7 6 7 11 3 6 3 6 9 9 7 6 6 8 8 9 10 10 10 9 10 11 11 10 11 11 10 10 12 10 9 7 7 7 6 7 6 7 10 10 10
2 1 2 4 5 1 5 2 1 0 2 2 3 0 5 2 5 4 2 3 6 9 10 10 10 9 1 0 1 4 9 9 11 9 7 7 7 8 9 10 10 9 9 10 10 9 10 11 10 10 11 12 11 8 6 5 5 5 6 7 7 5 4
3 2 1 2 2 5 4 5 4 5 2 4 2 2 7 1 5 4 4 6 7 7 9 10 9 6 4 3 5 6 9 9 9 10 10 8 8 9 8 10 11 12 11 11 11 10 10 10 11 11 11 11 10 9 8 6 3 4 4 5 5 5 6
2 3 2 3 3 3 3 6 3 4 3 3 2 6 5 3 6 5 6 7 7 8 8 9 6 2 2 5 7 10 12 9 8 9 10 10 10 11 10 8 8 10 9 11 11 11 11 11 10 11 11 10 10 9 9 8 5 5 6 6 3 3 5
3 5 3 2 5 4 3 4 2 3 1 1 1 8 1 3 4 4 4 4 5 5 7 6 6 3 3 7 9 10 11 12 12 10 9 9 8 9 10 9 10 8 9 8 9 10 9 9 10 10 10 9 9 9 9 6 7 7 6 6 7 5 4
4 3 3 5 5 6 7 5 4 2 2 3 8 3 3 4 3 1 2 4 4 4 4 5 6 10 10 9 7 8 9 10 10 10 10 10 11 9 8 9 8 8 9 9 9 11 9 9 10 9 9 10 9 9 9 8 8 8 8 7 7 7 7
3 2 2 2 2 2 4 5 2 0 2 5 3 1 2 4 2 2 2 1 3 2 5 6 9 11 12 12 12 9 7 8 9 10 10 10 10 10 11 12 12 9 9 9 8 9 10 10 8 7 9 10 10 9 9 10 9 9 8 7 7 7 7
6 5 5 6 9 5 6 5 4 4 6 2 1 1 3 2 2 2 2 1 2 3 5 7 9 11 13 13 11 14 11 6 8 10 8 8 9 9 9 8 10 9 10 9 9 8 8 8 7 6 6 8 10 10 10 10 10 10 10 8 7 7 7
5 7 8 7 3 5 6 5 3 4 5 2 2 2 3 3 3 3 2 3 3 4 6 8 9 11 11 12 12 12 14 12 8 9 11 9 9 10 10 10 10 10 10 11 10 9 7 6 7 6 6 7 10 11 9 9 10 10 11 11 8 8 8
4 5 8 4 1 3 4 4 4 5 5 4 2 3 4 4 4 3 4 4 4 5 5 8 9 10 12 12 13 12 12 12 11 8 10 12 8 9 9 8 9 10 11 11 11 11 9 7 5 4 5 5 8 9 9 9 9 10 11 11 9 9 10
1 5 2 5 9 5 6 8 5 4 3 5 3 3 5 5 4 4 5 5 5 5 6 9 10 13 13 13 13 11 11 12 12 11 9 10 12 10 11 10 9 10 9 10 11 12 12 8 5 4 5 5 6 6 8 8 9 10 11 11 10 9 10
5 7 3 4 2 3 3 5 3 5 7 6 5 6 4 4 4 4 5 4 6 5 7 8 10 12 12 13 13 11 11 12 13 12 10 9 11 12 10 11 10 9 9 11 12 12 13 11 7 4 4 6 6 6 7 8 8 10 10 10 9 9 11
6 6 11 11 5 7 10 9 8 8 7 5 4 5 5 4 5 6 5 4 6 6 8 8 10 12 13 13 13 14 12 13 13 12 11 9 9 12 14 12 10 10 9 11 13 13 14 12 10 7 6 6 5 5 6 6 7 9 10 11 10 10 11
5 7 8 4 1 4 3 4 8 7 7 6 5 3 4 5 6 5 6 8 6 7 8 9 9 12 12 12 12 15 13 13 14 13 13 11 11 12 12 13 12 11 11 11 12 14 14 12 11 9 7 6 5 5 5 5 7 8 10 10 10 9 8
7 10 10 6 5 4 6 5 3 5 4 5 5 6 6 6 5 5 5 8 10 9 8 8 11 12 12 13 13 15 15 14 14 14 15 14 13 12 12 13 15 13 12 11 12 14 14 12 11 10 7 6 5 4 5 5 7 8 8 9 9 7 7
9 7 4 6 6 7 4 4 5 5 4 5 6 6 6 6 7 5 5 6 9 11 10 10 9 11 12 13 13 17 17 16 16 16 15 15 15 14 13 12 15 16 14 12 12 13 12 12 11 9 9 7 4 5 5 6 6 7 8 8 8 8 7
10 6 4 7 8 7 3 2 3 3 3 4 4 7 7 7 7 5 6 8 7 9 11 13 12 11 13 15 15 16 17 16 15 16 18 18 18 16 13 13 15 15 13 10 10 11 11 12 12 10 10 8 4 4 6 7 7 8 9 9 10 9 9
Wind_Direction
342 343 313 8 101 143 217 97 155 170 140 103 83 53 40 99 72 177 265 340 338 289 314 3 354 1 11 10 9 8 3 1 356 297 208 202 207 207 205 204 201 199 194 193 192 189 190 191 190 191 190 189 189 188 189 193 195 192 193 194 196 197 197
318 338 268 209 50 190 100 79 225 300 150 126 125 165 335 56 136 224 41 28 345 31 213 348 340 2 5 9 5 1 1 5 4 346 320 246 210 206 206 208 209 204 198 195 194 192 191 190 190 191 191 189 188 189 188 190 192 193 195 196 199 197 193
279 323 40 9 341 18 91 146 352 138 132 180 312 102 123 122 171 127 58 7 64 32 303 339 346 349 348 359 354 6 7 0 353 343 328 307 239 211 203 202 203 204 201 196 195 197 195 193 191 191 189 186 188 191 192 192 193 193 191 193 197 198 195
303 13 36 24 317 326 27 5 30 356 93 106 112 192 175 118 188 93 239 46 46 318 311 342 326 334 341 351 354 2 3 358 355 343 336 319 264 218 204 201 202 201 200 197 200 195 191 192 192 191 188 187 189 191 191 195 197 194 193 195 194 195 194
34 25 6 38 351 15 353 27 7 5 356 254 59 29 58 190 160 173 137 42 27 328 332 335 323 327 358 357 348 349 355 0 357 356 348 341 315 231 213 205 201 201 198 199 198 196 191 189 191 188 188 190 191 189 192 193 191 193 197 198 194 198 192
39 140 283 63 58 56 68 69 64 308 2 29 89 142 355 50 82 177 111 141 255 288 356 337 351 346 11 354 355 345 357 360 2 3 4 3 3 348 244 227 233 212 208 205 200 193 187 185 188 190 192 190 188 190 193 193 193 196 194 194 196 195 194
129 145 63 34 70 69 74 63 30 345 64 103 76 120 298 31 1 62 133 115 180 278 350 358 2 16 9 1 353 0 359 359 6 13 8 12 16 14 7 352 139 152 192 208 205 198 193 190 189 190 191 192 192 192 191 191 192 197 195 196 195 192 192
307 287 263 27 22 44 12 22 24 15 16 325 190 173 185 109 346 40 349 74 179 272 5 356 9 16 12 5 8 2 6 5 5 13 23 21 21 20 19 18 10 19 76 159 179 192 199 196 194 193 193 195 194 193 193 191 195 196 195 195 193 194 194
342 331 358 7 340 40 54 8 341 2 342 9 87 89 39 80 6 207 120 148 181 264 355 341 11 19 20 12 5 2 5 10 9 14 21 23 25 28 27 23 20 21 21 14 2 335 200 191 198 191 188 198 199 201 195 196 198 195 195 193 192 195 194
133 198 249 271 322 344 318 19 342 357 24 1 21 30 358 77 277 84 119 233 251 289 349 10 13 15 20 14 8 5 8 8 9 13 18 25 26 28 28 28 27 25 19 20 18 13 355 213 179 156 188 189 189 206 202 203 198 196 197 193 195 194 195
170 189 202 262 329 360 47 322 9 340 358 0 72 108 75 72 256 69 232 122 328 327 16 15 11 14 21 11 10 10 3 360 8 11 19 22 27 27 26 28 29 29 25 19 18 17 15 17 357 170 183 187 184 193 198 197 198 198 195 194 194 196 197
163 179 93 320 357 46 301 31 328 339 348 0 37 77 122 165 74 308 285 105 25 309 14 8 4 10 29 21 14 6 1 360 6 3 8 18 25 22 25 26 24 24 21 20 20 17 21 16 20 20 1 194 187 196 198 193 194 193 194 194 194 197 198
359 6 321 9 31 330 301 298 299 323 313 354 44 271 199 133 144 195 276 319 337 315 16 348 8 3 40 36 15 3 346 0 6 8 14 18 17 12 18 20 20 16 16 13 14 19 18 22 22 19 24 14 344 217 201 197 194 195 193 192 196 197 199
28 350 9 356 38 342 337 290 266 254 280 286 252 259 243 164 205 212 251 280 260 323 1 356 23 7 28 40 14 11 16 7 4 8 14 16 13 10 11 9 8 8 7 7 10 15 22 23 18 17 18 13 10 1 293 208 196 197 187 194 196 199 202
358 308 348 8 339 184 303 276 268 268 253 261 260 226 292 241 359 33 327 265 317 240 360 20 61 46 78 54 35 27 11 7 8 7 8 7 7 6 4 3 1 353 353 360 6 12 17 18 17 16 11 7 4 3 4 353 261 202 191 195 198 200 205
313 281 314 286 285 274 224 291 307 292 340 24 340 305 256 63 250 330 343 35 288 311 353 360 56 37 40 43 30 21 16 6 7 7 2 359 1 2 359 356 356 357 353 352 354 360 3 7 11 11 8 3 360 1 357 346 336 295 206 199 200 203 206
253 247 236 279 327 40 36 16 23 327 274 273 292 285 271 225 189 87 272 224 358 303 323 14 26 47 36 38 25 23 13 10 5 6 359 353 353 355 355 356 355 352 345 342 341 347 353 358 1 357 358 359 357 351 347 341 329 325 258 210 203 205 205
243 295 306 279 57 40 242 236 278 238 255 294 314 289 304 344 57 164 188 221 292 341 10 16 357 21 31 34 16 1 15 358 1 359 358 351 345 347 352 353 350 343 342 340 336 337 342 350 351 341 341 338 344 333 337 347 358 348 333 244 211 207 204
288 310 347 44 26 219 249 293 289 264 243 255 236 277 350 27 42 56 47 353 1 329 334 335 337 317 301 21 23 16 9 12 9 354 350 348 346 342 343 347 348 344 338 337 337 333 342 344 340 344 340 341 326 345 351 12 10 3 358 344 273 230 212
24 41 32 79 255 240 304 291 311 336 77 353 56 325 3 58 57 45 58 318 312 304 313 334 320 306 272 186 85 42 15 8 1 356 347 340 337 339 338 340 338 340 336 335 335 328 326 334 339 343 338 334 332 339 353 15 22 29 13 1 7 9 342
193 196 124 214 307 341 340 11 356 26 61 355 43 268 274 87 47 47 342 329 338 337 335 336 346 330 307 181 237 25 16 357 347 342 328 329 324 326 327 332 327 326 328 329 325 323 323 331 338 343 333 327 326 329 4 2 28 32 28 12 19 20 8
116 121 354 360 28 299 275 228 233 162 300 269 254 214 282 39 35 28 19 352 341 338 337 344 345 326 31 44 257 359 3 350 336 332 320 318 319 320 324 327 324 329 330 325 324 328 325 326 338 338 333 328 326 327 344 355 14 44 41 27 33 25 359
54 81 140 204 165 242 206 220 220 252 224 232 250 84 278 150 18 4 15 7 356 346 333 335 343 8 32 284 303 337 343 336 331 327 323 323 321 319 324 326 327 328 330 328 326 327 330 334 338 338 335 331 328 330 333 332 32 30 32 38 19 0 337
159 137 125 237 206 232 253 210 211 235 217 206 96 342 282 11 339 351 12 7 357 339 336 334 347 16 333 303 319 330 322 321 316 318 315 319 324 322 319 315 320 319 319 325 329 334 337 337 333 341 342 337 334 333 330 329 3 22 5 349 349 340 335
199 192 242 331 295 266 242 243 236 281 233 70 198 222 243 298 305 326 11 357 346 347 339 343 330 267 313 306 304 306 309 316 317 314 313 307 310 312 314 312 320 319 323 319 320 324 329 330 336 340 343 338 335 332 326 328 353 351 342 330 323 336 320
182 190 182 233 254 237 192 238 231 246 99 165 218 224 171 218 286 336 9 327 323 341 314 314 296 300 304 299 301 306 304 302 301 305 305 311 316 314 310 313 315 321 321 319 320 323 326 335 340 342 344 339 331 334 328 332 344 332 327 325 319 326 324
85 96 105 8 311 274 146 167 42 148 152 229 197 236 223 182 206 289 305 229 279 316 307 302 300 300 306 313 313 308 297 295 300 302 307 309 310 311 318 319 320 321 321 319 314 318 321 329 338 340 342 336 334 332 327 326 330 326 322 318 318 315 304
153 163 178 198 214 189 197 141 170 214 210 216 145 105 296 168 163 238 235 235 238 282 289 297 297 296 300 302 306 311 306 295 298 301 299 300 297 303 297 297 305 310 309 305 308 310 314 316 326 336 338 330 328 329 325 327 321 323 320 315 316 301 288
154 192 210 235 242 187 196 188 201 205 246 226 213 176 208 243 251 199 248 250 255 266 280 281 282 288 283 284 293 295 297 300 295 296 301 295 296 297 298 299 304 309 304 302 303 298 304 305 318 326 329 323 325 324 325 321 323 321 319 316 316 306 294
269 253 207 184 203 253 251 250 223 232 248 255 206 223 248 214 210 199 239 250 250 267 265 277 278 273 280 285 285 285 287 292 292 288 288 295 289 291 295 295 302 304 303 302 300 298 300 303 292 311 319 317 319 315 317 321 321 322 318 315 315 310 300
65 269 334 184 221 214 218 225 250 255 226 231 207 221 216 224 216 229 228 239 245 246 261 263 270 275 278 279 276 273 282 286 288 285 277 281 290 292 293 292 299 302 304 303 300 301 297 304 297 295 307 305 303 308 314 322 327 325 319 310 312 308 298
179 234 225 234 213 209 206 189 220 248 247 241 230 217 208 213 231 230 247 244 253 239 253 254 264 270 275 278 279 279 274 279 282 280 277 273 284 288 285 288 288 286 289 291 292 295 297 300 301 283 284 294 301 311 316 320 325 322 311 305 300 303 298
265 314 275 257 245 248 245 236 232 235 238 234 225 210 221 240 260 268 262 227 246 246 254 255 264 270 269 269 274 275 275 272 272 274 273 269 266 279 288 287 285 283 282 285 287 288 289 295 297 294 285 284 298 313 315 318 322 319 309 304 304 299 295
266 227 247 123 129 273 287 248 216 215 219 204 215 222 253 251 260 274 293 297 275 252 254 255 258 267 271 273 275 275 272 268 268 272 275 275 271 270 274 283 282 277 275 276 281 283 285 289 293 294 296 297 299 305 302 310 313 310 307 301 294 289 286
239 239 233 188 191 242 225 222 212 200 186 175 203 224 237 254 255 263 280 291 297 291 270 251 260 261 266 271 273 274 271 269 269 270 271 272 272 268 269 277 281 276 272 273 277 279 280 283 286 290 291 296 289 284 292 300 308 300 299 294 288 284 287
247 252 229 172 168 211 237 216 206 220 196 183 224 242 237 246 257 263 264 266 282 289 287 276 258 262 268 267 268 269 270 269 267 267 265 263 263 264 263 262 270 275 273 270 268 271 278 280 282 285 289 290 282 291 296 303 304 299 298 291 285 284 280
232 231 194 183 199 224 219 189 193 211 210 190 218 247 249 253 258 251 266 276 271 281 289 287 282 272 270 272 268 266 269 269 265 264 265 264 260 257 254 252 255 261 266 265 266 270 273 275 277 281 286 287 287 291 300 304 303 300 298 295 292 290 289